Location: Dos Palmas
(32.4468°N, 116.8732°W)
Time: 05:28:17
(UTC+00:00)

Cosmos 2237 - Pass Details

Date: 20 June 2021
Orbit: 847 x 854 km, 70.8° (Epoch: 29 July)

Event Time Altitude Azimuth Distance (km) Brightness Sun altitude
Rises 04:07:26 0° 201° (SSW) 3,396 7.2 -13.1°
Reaches altitude 10° 04:09:53 10° 202° (SSW) 2,463 6.5 -13.5°
Maximum altitude 04:15:33 82° 290° (WNW) 859 4.3 -14.4°
Drops below altitude 10° 04:21:14 10° 18° (NNE) 2,474 6.9 -15.3°
Sets 04:23:42 0° 20° (NNE) 3,412 7.7 -15.7°
